Simultaneous Nadir Overpasses (SNOs) Predictions

Prediction of SNOs near equator between AQUA and NPP Satellite Orbit:

Table of predicted SNOs near equator for the next 14.0 days since TLE Epoch: 8/7/2015
Index Date (AQUA) Time (AQUA) AQUA Lat,Lon Date (NPP) Time (NPP) NPP Lat,Lon Distance(km) Time Diff (sec)
1 08/09/2015 21:47:48 -29.95, 52.24 08/09/2015 21:38:02 -30.03, 52.66 41.45 586
2 08/09/2015 22:37:19 29.97,-140.14 08/09/2015 22:28:50 30.00,-140.03 11.01 509
3 08/09/2015 23:22:15 -13.94, 31.33 08/09/2015 23:14:57 -13.94, 31.31 1.31 438
4 08/10/2015 00:05:49 -7.64,-156.43 08/09/2015 23:59:38 -7.68,-156.51 10.89 371
5 08/10/2015 00:53:55 12.21, 12.23 08/10/2015 00:49:00 12.31, 11.87 40.00 295
6 08/10/2015 01:42:11 -16.76,-179.15 08/10/2015 01:38:31 -16.89,-179.76 67.32 220
7 08/10/2015 02:30:17 21.33, -10.44 08/10/2015 02:27:53 21.52, -11.31 93.14 144
8 08/12/2015 14:04:16 -29.96, 168.12 08/12/2015 13:54:54 -30.05, 168.43 31.75 562
9 08/12/2015 14:53:33 29.16, -24.05 08/12/2015 14:45:27 29.15, -24.03 2.52 486
10 08/12/2015 15:35:48 -3.40, 149.48 08/12/2015 15:28:49 -3.39, 149.48 0.20 419
11 08/12/2015 16:21:54 -9.01, -40.25 08/12/2015 16:16:06 -9.07, -40.43 20.26 348
12 08/12/2015 17:10:00 13.58, 128.40 08/12/2015 17:05:28 13.70, 127.97 49.13 272
13 08/12/2015 17:58:16 -18.12, -62.96 08/12/2015 17:54:59 -18.27, -63.66 75.90 197
14 08/15/2015 06:20:45 -30.00, -76.02 08/15/2015 06:11:46 -30.02, -75.79 21.96 539
15 08/15/2015 07:08:05 22.15, 93.55 08/15/2015 07:00:20 22.15, 93.56 1.10 465
16 08/15/2015 07:49:43 5.87, -92.67 08/15/2015 07:43:04 5.87, -92.67 0.48 399
17 08/15/2015 08:37:58 -10.47, 75.94 08/15/2015 08:32:34 -10.51, 75.67 29.66 324
18 08/15/2015 09:26:04 15.05,-115.39 08/15/2015 09:21:56 15.14,-115.92 58.14 248
19 08/15/2015 10:14:21 -19.52, 53.24 08/15/2015 10:11:27 -19.71, 52.46 84.36 174
20 08/17/2015 21:47:50 29.99,-127.79 08/17/2015 21:37:58 30.08,-127.36 42.43 592
21 08/17/2015 22:37:13 -30.00, 39.86 08/17/2015 22:28:39 -30.04, 39.98 12.01 514
22 08/17/2015 23:22:25 14.43,-148.80 08/17/2015 23:15:01 14.43,-148.81 0.59 444
23 08/18/2015 00:05:47 7.32, 23.52 08/17/2015 23:59:31 7.37, 23.44 10.71 376
24 08/18/2015 00:54:03 -11.86,-167.88 08/18/2015 00:49:02 -11.95,-168.22 39.16 301
25 08/18/2015 01:42:09 16.44, 0.80 08/18/2015 01:38:24 16.58, 0.19 67.11 225
26 08/18/2015 02:30:25 -20.96, 169.46 08/18/2015 02:27:55 -21.14, 168.59 92.60 150
27 08/20/2015 14:04:17 29.96, -11.90 08/20/2015 13:54:50 30.05, -11.58 32.45 567
28 08/20/2015 14:53:40 -29.96, 155.76 08/20/2015 14:45:30 -29.96, 155.77 1.66 490
29 08/20/2015 15:36:00 4.01, -30.66 08/20/2015 15:28:56 4.01, -30.66 0.29 424
30 08/20/2015 16:21:51 8.75, 139.71 08/20/2015 16:15:59 8.80, 139.54 20.19 352
31 08/20/2015 17:10:07 -13.28, -51.68 08/20/2015 17:05:30 -13.38, -52.12 48.66 277
32 08/20/2015 17:58:13 17.86, 117.00 08/20/2015 17:54:52 18.02, 116.30 76.02 201




NCC Satellite Simultaneous Nadir Overpasses (SNOs) Prediction Service
